FW0960 Weather Reports


time (UTC)temp
C
wind
direction
speed
KPH
gust
KPH
rain 1hr
cm
rain 24hr
cm
rain mn
cm
humidity
%
barometer
mb
20260905201555 25 196 0.0 0.0 0.00 0.00 0.00 72 1010.3
20260905201052 25 196 0.0 0.0 0.00 0.00 0.00 72 1010.3
20260905200558 26 199 0.0 0.0 0.00 0.00 0.00 71 1010.4
20260905200046 26 199 0.0 0.0 0.00 0.00 0.00 74 1010.4
20260905195547 26 201 0.0 0.0 0.00 0.00 0.00 73 1010.2
20260905195048 26 190 0.0 0.0 0.00 0.00 0.00 72 1010.4
20260905194043 26 198 0.0 0.0 0.00 0.00 0.00 72 1010.6
20260905193538 25 198 0.0 0.0 0.00 0.00 0.00 72 1010.9
20260905192537 25 198 0.0 0.0 0.00 0.00 0.00 74 1011.0
20260905191540 25 198 0.0 0.0 0.00 0.00 0.00 73 1011.1
20260905191036 25 198 0.0 0.0 0.00 0.00 0.00 73 1011.1
20260905190534 25 199 0.0 0.0 0.00 0.00 0.00 73 1011.0
20260905190036 26 199 0.0 0.0 0.00 0.00 0.00 73 1011.0
20260905185532 26 200 0.0 0.0 0.00 0.00 0.00 71 1011.0
20260905185032 26 200 0.0 0.0 0.00 0.00 0.00 72 1011.0
20260905184533 26 200 0.0 0.0 0.00 0.00 0.00 69 1011.1
20260905184031 26 200 0.0 0.0 0.00 0.00 0.00 71 1011.4
20260905183534 26 201 0.0 0.0 0.00 0.00 0.00 67 1011.4
20260905183032 25 202 0.0 0.0 0.00 0.00 0.00 68 1011.6
20260905182102 25 202 0.0 0.0 0.00 0.00 0.00 75 1011.6
20260905181522 25 203 0.0 0.0 0.00 0.00 0.00 72 1011.6
20260905180022 25 192 0.0 0.0 0.00 0.00 0.00 75 1011.6
20260905175516 25 192 0.0 0.0 0.00 0.00 0.00 77 1011.5
20260905174516 25 194 0.0 0.0 0.00 0.00 0.00 75 1011.8
20260905174015 25 196 0.0 0.0 0.00 0.00 0.00 75 1011.5
20260905173514 25 196 0.0 0.0 0.00 0.00 0.00 73 1011.6
20260905171506 25 195 0.0 0.0 0.00 0.00 0.00 75 1011.6
20260905170013 25 193 0.0 0.0 0.00 0.00 0.00 76 1011.7
20260905165505 25 192 0.0 0.0 0.00 0.00 0.00 76 1011.8
20260905164503 25 192 0.0 0.0 0.00 0.00 0.00 75 1011.8
20260905164009 25 192 0.0 0.0 0.00 0.00 0.00 74 1011.8
20260905162959 25 193 0.0 0.0 0.00 0.00 0.00 76 1012.1
20260905162453 25 197 0.0 0.0 0.00 0.00 0.00 73 1012.0
20260905161940 25 198 0.0 0.0 0.00 0.00 0.00 75 1011.9
20260905161434 25 196 0.0 0.0 0.00 0.00 0.00 74 1012.1
20260905160931 25 197 0.0 0.0 0.00 0.00 0.00 75 1012.2
20260905160432 25 202 0.0 0.0 0.00 0.00 0.00 76 1012.1
20260905155939 25 198 0.0 0.0 0.00 0.00 0.00 75 1012.2
20260905154940 25 192 0.0 0.0 0.00 0.00 0.00 76 1012.3
20260905153934 25 195 0.0 0.0 0.00 0.00 0.00 76 1012.3
20260905153431 24 192 0.0 0.0 0.00 0.00 0.00 77 1012.3
20260905152932 24 189 0.0 0.0 0.00 0.00 0.00 76 1012.5
20260905150931 24 195 0.0 0.0 0.00 0.00 0.00 76 1012.2
20260905150432 24 194 0.0 0.0 0.00 0.00 0.00 75 1012.4
20260905145439 24 196 0.0 0.0 0.00 0.00 0.00 77 1012.3
20260905144936 24 196 0.0 0.0 0.00 0.00 0.00 77 1012.3
20260905144431 24 194 0.0 0.0 0.00 0.00 0.00 77 1012.3
20260905143932 24 192 0.0 0.0 0.00 0.00 0.00 78 1012.3
20260905142930 24 192 0.0 0.0 0.00 0.00 0.00 79 1012.2
20260905142431 25 191 0.0 0.0 0.00 0.00 0.00 78 1012.1
20260905141435 25 193 0.0 0.0 0.00 0.00 0.00 76 1012.1
20260905140930 25 198 0.0 0.0 0.00 0.00 0.00 76 1011.8
20260905140432 25 198 0.0 0.0 0.00 0.00 0.00 75 1011.8
20260905135430 25 184 0.0 0.0 0.00 0.00 0.00 76 1011.7
20260905134933 25 184 0.0 0.0 0.00 0.00 0.00 76 1011.6
20260905134430 25 184 0.0 0.0 0.00 0.00 0.00 78 1011.6
20260905133937 25 184 0.0 0.0 0.00 0.00 0.00 78 1011.6
20260905133434 25 184 0.0 0.0 0.00 0.00 0.00 77 1011.5
20260905132935 24 184 0.0 0.0 0.00 0.00 0.00 79 1011.4
20260905132432 24 184 0.0 0.0 0.00 0.00 0.00 77 1011.4
20260905131929 24 184 0.0 0.0 0.00 0.00 0.00 77 1011.4
20260905131431 24 184 0.0 0.0 0.00 0.00 0.00 78 1011.3
20260905130930 24 184 0.0 0.0 0.00 0.00 0.00 77 1011.4
20260905130431 24 184 0.0 0.0 0.00 0.00 0.00 74 1011.2
20260905125430 24 184 0.0 0.0 0.00 0.00 0.00 79 1011.4
20260905124932 24 184 0.0 0.0 0.00 0.00 0.00 78 1011.4
20260905124432 24 184 0.0 0.0 0.00 0.00 0.00 78 1011.4
20260905123431 24 184 0.0 0.0 0.00 0.00 0.00 85 1011.5
20260905122933 24 184 0.0 0.0 0.00 0.00 0.00 85 1011.6
20260905122431 23 184 0.0 0.0 0.00 0.00 0.00 85 1011.6
20260905121454 23 183 0.0 0.0 0.00 0.00 0.00 87 1011.5
20260905120932 23 148 0.0 0.0 0.00 0.00 0.00 89 1011.3
20260905120434 23 148 0.0 0.0 0.00 0.00 0.00 91 1011.2
20260905115932 23 148 0.0 0.0 0.00 0.00 0.00 93 1011.1
20260905115431 23 148 0.0 0.0 0.00 0.00 0.00 94 1011.1
20260905114935 23 148 0.0 0.0 0.00 0.00 0.00 96 1010.9
20260905114436 23 148 0.0 0.0 0.00 0.00 0.00 96 1011.0
20260905113441 23 148 0.0 0.0 0.00 0.00 0.00 97 1010.9
20260905112434 22 148 0.0 0.0 0.00 0.00 0.00 98 1010.9
20260905111433 22 148 0.0 0.0 0.00 0.00 0.00 98 1010.8
20260905110430 22 148 0.0 0.0 0.00 0.00 0.00 98 1010.8
20260905105929 22 148 0.0 0.0 0.00 0.00 0.00 98 1010.7
20260905105432 22 148 0.0 0.0 0.00 0.00 0.00 98 1010.5
20260905104937 22 148 0.0 0.0 0.00 0.00 0.00 98 1010.4
20260905104023 22 148 0.0 0.0 0.00 0.00 0.00 98 1010.3
20260905102932 22 148 0.0 0.0 0.00 0.00 0.00 98 1010.3
20260905102430 22 148 0.0 0.0 0.00 0.03 0.00 98 1010.1
20260905101929 22 148 0.0 0.0 0.00 0.03 0.00 97 1010.0
20260905101432 22 148 0.0 0.0 0.00 0.03 0.00 97 1010.0
20260905100934 22 148 0.0 0.0 0.00 0.03 0.00 97 1009.9
20260905100430 22 148 0.0 0.0 0.00 0.03 0.00 97 1009.9
20260905095430 22 148 0.0 0.0 0.00 0.03 0.00 97 1009.9
20260905094926 22 148 0.0 0.0 0.00 0.03 0.00 97 1009.9
20260905094442 22 148 0.0 0.0 0.00 0.03 0.00 97 1009.9
20260905093920 23 148 0.0 0.0 0.00 0.03 0.00 96 1010.0
20260905093440 23 148 0.0 0.0 0.00 0.03 0.00 96 1010.1
20260905092413 23 148 0.0 0.0 0.00 0.03 0.00 96 1010.0
20260905091910 23 148 0.0 0.0 0.00 0.03 0.00 96 1009.9
20260905091417 23 148 0.0 0.0 0.00 0.03 0.00 95 1010.0
20260905090910 23 148 0.0 0.0 0.00 0.03 0.00 95 1010.0
20260905090410 23 148 0.0 0.0 0.00 0.03 0.00 95 1010.1
20260905085909 23 148 0.0 0.0 0.00 0.03 0.00 95 1010.1
20260905085410 23 148 0.0 0.0 0.00 0.03 0.00 95 1009.9
20260905084904 23 148 0.0 0.0 0.00 0.03 0.00 95 1010.1
20260905084408 23 148 0.0 0.0 0.00 0.03 0.00 95 1010.2
20260905083902 23 148 0.0 0.0 0.00 0.03 0.00 95 1010.0
20260905083402 23 148 0.0 0.0 0.00 0.03 0.00 95 1010.0
20260905082401 23 148 0.0 0.0 0.00 0.05 0.00 94 1010.0
20260905080839 23 148 0.0 0.0 0.00 0.05 0.00 94 1010.1
20260905080333 23 148 0.0 0.0 0.00 0.05 0.00 94 1010.2
20260905075837 23 148 0.0 0.0 0.00 0.05 0.00 94 1010.2
20260905075335 23 148 0.0 0.0 0.00 0.05 0.00 94 1010.2
20260905074835 23 148 0.0 0.0 0.00 0.08 0.00 94 1010.1
20260905073331 23 148 0.0 0.0 0.00 0.10 0.00 93 1009.9
20260905072840 24 148 0.0 0.0 0.00 0.10 0.00 93 1010.0
20260905072342 24 148 0.0 0.0 0.00 0.13 0.00 93 1010.1
20260905071333 24 148 0.0 0.0 0.00 0.18 0.00 93 1010.2
20260905070831 24 148 0.0 0.0 0.00 0.20 0.00 93 1010.5
20260905070333 25 148 0.0 0.0 0.00 0.25 0.00 93 1010.5
20260905065337 25 148 0.0 0.0 0.00 0.33 0.00 92 1010.6
20260905064839 25 148 0.0 0.0 0.00 0.36 0.00 92 1010.6
20260905063835 25 148 0.0 0.0 0.00 0.38 0.00 92 1010.5
20260905063331 25 148 0.0 0.0 0.00 0.41 0.00 92 1010.6
20260905062831 25 148 0.0 0.0 0.00 0.41 0.00 91 1010.6
20260905061830 25 148 0.0 0.0 0.00 0.48 0.00 90 1010.7
20260905061329 25 148 0.0 0.0 0.00 0.51 0.00 90 1010.7
20260905060825 25 148 0.0 0.0 0.00 0.56 0.00 90 1010.6
20260905055820 25 148 0.0 0.0 0.00 0.81 0.00 90 1010.7
20260905055323 25 148 0.0 0.0 0.00 1.40 0.00 90 1010.5
20260905054821 25 148 0.0 0.0 0.00 1.60 0.00 91 1010.5
20260905054318 25 148 0.0 0.0 0.00 1.60 0.00 91 1010.4
20260905053818 25 148 0.0 0.0 0.00 1.60 0.00 90 1010.5
20260905053313 25 148 0.0 0.0 0.00 1.60 0.00 91 1010.7
20260905052815 25 148 0.0 0.0 0.00 1.60 0.00 91 1010.7
20260905052329 25 148 0.0 0.0 0.00 1.60 0.00 91 1010.8
20260905051310 25 144 0.0 0.0 0.00 1.60 0.00 91 1010.9
20260905050305 25 145 0.0 0.0 0.00 1.60 0.00 91 1011.0
20260905045806 25 144 0.0 0.0 0.00 1.60 0.00 91 1011.1
20260905044800 25 144 0.0 0.0 0.00 1.60 0.00 90 1011.3
20260905044255 25 144 0.0 0.0 0.00 1.60 0.00 90 1011.3
20260905043751 25 144 0.0 0.0 0.00 1.60 0.00 90 1011.4
20260905043242 25 144 0.0 0.0 0.00 1.60 0.00 89 1011.5
20260905042233 25 144 0.0 0.0 0.00 1.60 0.00 89 1011.4
20260905041743 25 145 0.0 0.0 0.00 1.60 0.00 89 1011.5
20260905041233 25 144 0.0 0.0 0.00 1.60 0.00 89 1011.5
20260905040735 25 144 0.0 0.0 0.00 1.60 0.00 89 1011.4
20260905040238 25 144 0.0 0.0 0.00 1.60 0.00 89 1011.4
20260905035738 25 145 0.0 0.0 0.00 1.60 1.60 88 1011.4
20260905035233 25 144 0.0 0.0 0.00 1.60 1.60 88 1011.3
20260905034731 25 144 0.0 1.6 0.00 1.60 1.60 87 1011.4
20260905034232 25 145 0.0 1.6 0.00 1.60 1.60 87 1011.3
20260905033730 25 145 0.0 0.0 0.00 1.60 1.60 87 1011.4
20260905033231 25 145 0.0 0.0 0.00 1.60 1.60 88 1011.5
20260905032732 25 145 0.0 0.0 0.00 1.60 1.60 88 1011.6
20260905031731 25 144 0.0 0.0 0.00 1.60 1.60 89 1011.7
20260905031231 25 145 0.0 0.0 0.00 1.60 1.60 89 1011.7
20260905030732 25 144 0.0 0.0 0.00 1.60 1.60 90 1011.8
20260905030232 25 145 0.0 0.0 0.00 1.60 1.60 90 1012.0
20260905025730 25 144 0.0 0.0 0.00 1.60 1.60 90 1011.9
20260905025232 25 145 0.0 0.0 0.00 1.60 1.60 89 1011.9
20260905024736 25 144 0.0 0.0 0.00 1.60 1.60 89 1012.1
20260905023835 25 145 0.0 0.0 0.00 1.60 1.60 90 1011.9
20260905022732 25 144 0.0 0.0 0.00 1.60 1.60 91 1012.0
20260905022233 25 144 0.0 0.0 0.00 1.60 1.60 90 1011.9
20260905021731 25 144 0.0 0.0 0.00 1.60 1.60 89 1011.8
20260905021231 25 144 0.0 0.0 0.00 1.60 1.60 89 1012.0
20260905020736 25 144 0.0 0.0 0.00 1.60 1.60 89 1012.0
20260905020229 25 145 0.0 0.0 0.00 1.60 1.60 90 1011.9
20260905015731 25 144 0.0 0.0 0.00 1.60 1.60 90 1012.0
20260905014734 25 144 0.0 0.0 0.00 1.60 1.60 91 1012.1
20260905014232 25 144 0.0 0.0 0.00 1.60 1.60 90 1012.0
20260905013732 25 144 0.0 0.0 0.00 1.60 1.60 89 1012.0
20260905013232 25 144 0.0 0.0 0.00 1.60 1.60 88 1012.0
20260905012731 25 144 0.0 0.0 0.00 1.60 1.60 88 1012.1
20260905012235 25 144 0.0 0.0 0.00 1.60 1.60 88 1012.0
20260905011737 25 144 0.0 0.0 0.00 1.60 1.60 88 1012.0
20260905011238 26 144 0.0 0.0 0.00 1.60 1.60 88 1012.1
20260905010218 26 144 0.0 0.0 0.00 1.60 1.60 88 1012.1
20260905005220 26 145 0.0 0.0 0.00 1.60 1.60 87 1012.1
20260905004215 26 144 0.0 0.0 0.00 1.60 1.60 87 1012.0
20260905003209 26 145 0.0 0.0 0.00 1.60 1.60 87 1011.9
20260905002710 26 145 0.0 0.0 0.00 1.60 1.60 85 1011.9
20260905002208 26 144 0.0 0.0 0.00 1.60 1.60 85 1011.9
20260905001707 26 145 0.0 0.0 0.00 1.60 1.60 84 1011.7
20260905001205 26 144 0.0 0.0 0.00 1.60 1.60 84 1011.6
20260905000703 26 145 0.0 0.0 0.00 1.60 1.60 85 1011.4
20260905000205 26 145 0.0 0.0 0.00 1.60 1.60 84 1011.4
20260904235706 26 145 0.0 0.0 0.00 1.60 1.60 83 1011.2
20260904235227 26 145 0.0 0.0 0.00 1.60 1.60 82 1011.1
20260904234203 27 145 0.0 0.0 0.00 1.60 1.60 82 1011.1
20260904233702 27 145 0.0 0.0 0.00 1.60 1.60 82 1011.2
20260904233203 27 145 0.0 0.0 0.00 1.60 1.60 81 1011.2
20260904232702 27 145 0.0 0.0 0.00 1.60 1.60 80 1011.3
20260904232153 27 144 0.0 0.0 0.00 1.60 1.60 80 1011.3
20260904231650 27 144 0.0 0.0 0.00 1.60 1.60 79 1011.4
20260904231140 27 145 0.0 0.0 0.00 1.60 1.60 79 1011.3
20260904230639 27 145 0.0 0.0 0.00 1.60 1.60 79 1011.7
20260904230132 27 145 0.0 0.0 0.00 1.60 1.60 79 1011.9
20260904225633 27 145 0.0 1.6 0.00 1.60 1.60 79 1012.0
20260904225134 28 145 0.0 1.6 0.00 1.60 1.60 79 1012.2
20260904224636 28 145 0.0 1.6 0.00 1.60 1.60 80 1012.1
20260904224138 28 145 0.0 1.6 0.00 1.60 1.60 80 1012.3
20260904223633 28 145 0.0 1.6 0.00 1.60 1.60 78 1012.3
20260904223139 28 144 0.0 1.6 0.00 1.60 1.60 78 1012.4
20260904222135 28 144 0.0 3.2 0.00 1.60 1.60 78 1012.4
20260904221134 28 144 0.0 3.2 0.00 1.60 1.60 78 1012.5
20260904220634 28 144 0.0 3.2 0.00 1.60 1.60 79 1012.5
20260904220132 28 144 0.0 3.2 0.00 1.60 1.60 79 1012.4
20260904215635 28 144 0.0 1.6 0.00 1.60 1.60 78 1012.4
20260904215132 28 144 0.0 1.6 0.00 1.60 1.60 77 1012.3
20260904214635 29 144 1.6 1.6 0.00 1.60 1.60 77 1012.3
20260904214133 29 143 1.6 3.2 0.00 1.60 1.60 78 1012.1
20260904213630 29 141 0.0 3.2 0.00 1.60 1.60 76 1011.8
20260904213128 29 129 0.0 3.2 0.00 1.60 1.60 77 1011.4
20260904212621 29 129 0.0 3.2 0.00 1.60 1.60 75 1011.4
20260904212120 29 143 0.0 3.2 0.00 1.60 1.60 75 1011.5
20260904211705 30 143 1.6 3.2 0.00 1.60 1.60 75 1011.9
20260904210618 30 148 1.6 6.4 0.00 1.60 1.60 75 1011.7
20260904210126 30 144 1.6 6.4 0.00 1.60 1.60 74 1011.9
20260904205618 30 198 1.6 4.8 0.00 1.60 1.60 75 1012.2
20260904204618 30 191 1.6 4.8 0.00 1.60 1.60 74 1012.1
20260904204120 30 167 1.6 4.8 0.00 1.60 1.60 72 1012.1
20260904203115 30 178 0.0 4.8 0.00 1.60 1.60 73 1011.9
20260904202110 30 153 1.6 8.0 0.00 1.60 1.60 73 1011.9